Location: Princeton
(33.1801°N, 96.4980°W)
Time: 15:23:01
(UTC+00:00)

Daily predictions for brighter satellites

Satellite Brightness Start Highest point End
(mag) Time Altitude Azimuth Time Altitude Azimuth Time Altitude Azimuth
ATLAS 5 CENTAUR R/B 2.0 12:03:12 28° WNW 12:03:41 29° NW 12:07:15 10° N
Cosmos 1340 Rocket 2.7 12:02:56 10° S 12:06:52 86° WNW 12:10:52 10° N
Cosmos 2279 Rocket 4.2 12:02:36 10° NNW 12:08:29 47° W 12:14:22 10° SSW
CZ-4B R/B 3.3 12:05:51 10° NNE 12:09:22 57° E 12:12:59 10° S
Envisat 3.6 12:06:13 10° N 12:10:43 33° WNW 12:15:13 10° SW
Nadezhda 4 Rocket 3.9 12:04:49 10° SSW 12:10:56 70° W 12:17:09 10° N
Cosmos 1500 Rocket 3.5 12:07:23 10° S 12:11:50 80° W 12:16:19 10° N
SKYMED 2 3.8 12:09:10 10° S 12:13:20 47° W 12:17:31 10° NNW
Sich 1 4.3 12:10:52 10° SSE 12:14:55 43° E 12:18:58 10° NNE
Meteor 2-15 4.4 12:14:04 10° NNW 12:20:00 59° W 12:25:55 10° S
ATLAS 3B R/B 2.8 12:16:26 10° SW 12:22:38 48° NW 12:29:07 10° NNE
Cosmos 1805 Rocket 3.7 12:19:53 10° S 12:24:15 78° E 12:28:37 10° N
H-2A R/B 3.4 12:20:36 10° SE 12:24:34 39° ENE 12:28:38 10° N
Lacrosse 5 2.8 12:21:17 10° SSW 12:26:11 52° SE 12:31:08 10° NE
BREEZE-M DEB (TANK) 4.5 12:16:48 10° NW 12:27:22 46° NNE 12:30:47 10° E
H-2A R/B 4.4 12:28:04 14° W 12:28:04 14° W 12:29:30 10° WSW
Meteor 1-27 Rocket 3.7 12:23:09 10° NNW 12:28:50 74° W 12:34:37 10° S
Cosmos 1092 Rocket 4.0 12:23:44 10° S 12:29:58 87° W 12:36:18 10° N
COSMOS 2487 3.4 12:28:34 10° N 12:31:49 45° ENE 12:35:01 10° SSE
CZ-4C R/B 3.1 12:28:54 10° S 12:31:55 43° W 12:34:54 10° NNW
Meteor 1-31 Rocket 4.2 12:31:43 10° NNW 12:34:20 17° WNW 12:36:57 10° WSW
SL-4 R/B 2.3 12:34:45 10° WSW 12:37:57 35° NW 12:41:20 10° NNE
Cosmos 990 Rocket 4.4 12:33:08 10° S 12:38:21 72° ESE 12:43:35 10° NNE
Cosmos 1939 Rocket 2.7 12:35:21 10° N 12:39:14 81° WNW 12:43:04 10° SSW
BREEZE-M DEB 4.4 12:37:56 10° W 12:40:51 30° NNW 12:48:06 10° NE
DELTA 2 R/B (1) 4.1 12:41:37 10° WNW 12:46:57 47° N 12:52:19 10° E
CZ-2D R/B 4.3 12:43:31 10° NNE 12:47:12 49° E 12:50:52 10° S
NOSS 2 (A) 4.4 12:44:44 10° NNW 12:47:13 61° ENE 12:49:32 10° SE
Meteor 1-25 Rocket 4.3 12:41:42 10° SSW 12:47:15 60° W 12:52:46 10° N
SMAP 3.0 12:44:38 10° N 12:49:18 83° WNW 12:53:57 10° SSW
Okean 1 4.0 12:45:51 10° N 12:49:44 56° E 12:53:36 10° SSE
USA 215 3.9 12:43:52 10° ESE 12:50:10 54° NE 12:56:29 10° NNW
Cosmos 2297 Rocket 4.0 12:45:28 10° N 12:50:25 30° ENE 12:55:20 10° ESE
SL-8 R/B 3.8 12:47:08 10° NW 12:51:54 69° SW 12:56:37 10° SE
Okean O Rocket 3.3 23:43:47 10° E 23:45:48 13° ENE 23:47:48 10° NE
Cosmos 1666 Rocket 4.2 23:42:26 10° NNE 23:46:26 33° E 23:50:23 10° SE
SL-24 R/B - RUBIN 2 3.9 23:42:27 10° NNW 23:46:38 41° ENE 23:50:42 10° SE
Cosmos 2279 Rocket 4.1 23:41:25 10° S 23:47:28 57° E 23:53:32 10° NNE
SMAP 3.1 23:43:20 10° SSE 23:47:53 60° ENE 23:52:29 10° N
CZ-4B R/B 4.2 23:46:44 10° ESE 23:50:57 24° ENE 23:55:07 10° NNE
BREEZE-M DEB (TANK) 3.6 23:47:32 10° NW 23:54:43 89° NNE 23:57:32 10° SE
Lacrosse 5 rocket 3.3 23:53:40 10° NNE 23:55:03 11° NE 23:56:27 10° ENE
